DW1695 Weather Reports


Display with metric or nautical units.
time (UTC)temp
F
wind
direction
speed
MPH
gust
MPH
rain 1hr
in
rain 24hr
in
rain mn
in
humidity
%
barometer
mb
20180923041504 58 285 5.0 8.0 0.00 0.10 0.10 90 1018.4
20180923041005 58 291 6.0 9.0 0.00 0.10 0.10 90 1018.3
20180923040504 58 285 5.0 8.0 0.00 0.10 0.10 91 1018.3
20180923040004 58 281 4.0 7.0 0.00 0.10 0.10 90 1018.3
20180923035504 58 280 5.0 8.0 0.00 0.11 0.10 90 1018.2
20180923035004 58 283 5.0 8.0 0.00 0.11 0.10 90 1018.3
20180923034504 58 288 5.0 8.0 0.00 0.11 0.10 90 1018.3
20180923034005 58 288 5.0 9.0 0.00 0.11 0.10 90 1018.3
20180923033504 58 289 5.0 8.0 0.00 0.11 0.10 90 1018.3
20180923033005 58 288 5.0 9.0 0.00 0.11 0.10 90 1018.2
20180923032504 58 280 4.0 7.0 0.00 0.11 0.10 91 1018.1
20180923032005 58 290 4.0 8.0 0.00 0.12 0.10 91 1018.2
20180923031504 58 277 6.0 8.0 0.00 0.12 0.10 91 1018.1
20180923031005 58 280 5.0 9.0 0.00 0.13 0.10 90 1018.0
20180923030504 58 277 6.0 8.0 0.00 0.14 0.10 90 1017.9
20180923030004 58 271 5.0 8.0 0.00 0.15 0.10 90 1017.9
20180923025504 58 282 5.0 8.0 0.00 0.16 0.10 90 1017.9
20180923025004 59 279 5.0 8.0 0.00 0.17 0.10 90 1017.9
20180923024504 59 278 6.0 9.0 0.00 0.18 0.10 90 1017.8
20180923024005 59 278 5.0 9.0 0.00 0.18 0.10 90 1017.8
20180923023504 59 280 7.0 10.0 0.00 0.19 0.10 89 1017.8
20180923023005 59 277 6.0 10.0 0.00 0.20 0.10 89 1017.8
20180923022504 59 288 5.0 9.0 0.00 0.21 0.10 89 1017.9
20180923022004 59 281 5.0 9.0 0.00 0.22 0.10 89 1017.9
20180923021504 59 283 6.0 10.0 0.00 0.23 0.10 88 1017.9
20180923021005 59 280 6.0 9.0 0.00 0.23 0.10 88 1017.9
20180923020504 59 282 5.0 10.0 0.00 0.24 0.10 87 1017.9
20180923020004 60 287 5.0 8.0 0.00 0.24 0.10 87 1018.0
20180923015504 60 283 6.0 8.0 0.00 0.24 0.10 87 1018.0
20180923015004 60 287 5.0 9.0 0.00 0.24 0.10 87 1018.0
20180923014504 60 273 5.0 8.0 0.00 0.25 0.10 87 1018.0
20180923014004 60 281 6.0 9.0 0.00 0.25 0.10 86 1018.0
20180923013504 61 278 6.0 10.0 0.00 0.25 0.10 86 1018.0
20180923013004 61 278 6.0 9.0 0.00 0.25 0.10 86 1018.0
20180923012505 61 277 6.0 9.0 0.00 0.25 0.10 87 1017.9
20180923012004 61 277 5.0 8.0 0.00 0.25 0.10 87 1017.9
20180923011504 60 281 6.0 10.0 0.00 0.25 0.10 86 1017.9
20180923011004 61 285 7.0 10.0 0.00 0.25 0.10 86 1017.9
20180923010504 61 282 5.0 10.0 0.00 0.25 0.10 86 1017.9
20180923010004 61 285 5.0 9.0 0.00 0.25 0.10 86 1017.9
20180923005504 61 278 5.0 10.0 0.00 0.25 0.10 86 1017.9
20180923005005 61 287 6.0 9.0 0.00 0.25 0.10 86 1017.9
20180923004503 61 280 7.0 12.0 0.00 0.25 0.10 85 1017.9
20180923004005 62 271 6.0 9.0 0.00 0.25 0.10 86 1017.8
20180923003504 62 289 5.0 9.0 0.00 0.25 0.10 85 1017.8
20180923003005 62 270 6.0 12.0 0.00 0.25 0.10 85 1017.9
20180923002504 62 274 5.0 9.0 0.00 0.25 0.10 85 1017.8
20180923002005 62 301 6.0 10.0 0.00 0.25 0.10 84 1017.8
20180923001504 62 286 7.0 10.0 0.00 0.25 0.10 84 1017.7
20180923001004 62 292 5.0 8.0 0.00 0.25 0.10 84 1017.7
20180923000504 62 281 6.0 10.0 0.00 0.25 0.10 84 1017.7
20180923000005 62 294 6.0 10.0 0.00 0.25 0.10 84 1017.7
20180922235504 62 283 6.0 12.0 0.00 0.25 0.10 84 1017.7
20180922235004 62 271 6.0 10.0 0.00 0.25 0.10 85 1017.7
20180922234503 62 283 6.0 10.0 0.00 0.25 0.10 85 1017.7
20180922234004 62 275 7.0 12.0 0.00 0.25 0.10 84 1017.6
20180922233503 62 288 5.0 12.0 0.00 0.25 0.10 86 1017.5
20180922233004 62 297 5.0 9.0 0.00 0.25 0.10 85 1017.5
20180922232504 62 286 6.0 10.0 0.00 0.25 0.10 86 1017.5
20180922232004 62 291 7.0 10.0 0.00 0.25 0.10 85 1017.3
20180922231504 62 284 7.0 12.0 0.00 0.25 0.10 85 1017.3
20180922231004 62 297 7.0 12.0 0.00 0.25 0.10 85 1017.3
20180922230503 62 280 10.0 13.0 0.00 0.25 0.10 85 1017.2
20180922230004 62 297 6.0 12.0 0.00 0.25 0.10 86 1017.1
20180922225503 62 298 7.0 12.0 0.00 0.25 0.10 86 1017.1
20180922225004 62 295 9.0 13.0 0.00 0.25 0.10 85 1017.0
20180922224503 62 283 6.0 12.0 0.00 0.25 0.10 85 1017.0
20180922224004 62 295 5.0 12.0 0.00 0.25 0.10 86 1016.9
20180922223504 62 285 9.0 12.0 0.00 0.25 0.10 85 1016.8
20180922223004 62 284 7.0 12.0 0.00 0.25 0.10 85 1016.8
20180922222504 62 301 7.0 13.0 0.00 0.25 0.10 85 1016.8
20180922222005 62 290 7.0 12.0 0.00 0.25 0.10 86 1016.8
20180922221504 61 293 8.0 13.0 0.00 0.25 0.10 86 1016.8
20180922221005 61 297 10.0 17.0 0.00 0.25 0.10 86 1016.7
20180922220504 61 287 10.0 16.0 0.00 0.25 0.10 87 1016.7
20180922220004 61 299 10.0 16.0 0.00 0.25 0.10 87 1016.7
20180922215503 61 283 7.0 14.0 0.00 0.25 0.10 88 1016.6
20180922215004 61 292 9.0 14.0 0.00 0.25 0.10 87 1016.5
20180922214503 61 292 7.0 13.0 0.00 0.25 0.10 88 1016.4
20180922214005 60 284 10.0 15.0 0.00 0.25 0.10 87 1016.4
20180922213504 60 289 10.0 14.0 0.00 0.25 0.10 88 1016.4
20180922213005 61 297 6.0 13.0 0.00 0.25 0.10 89 1016.4
20180922212503 61 281 7.0 12.0 0.00 0.25 0.10 89 1016.3
20180922212004 60 278 8.0 12.0 0.00 0.25 0.10 89 1016.4
20180922211504 60 287 8.0 13.0 0.00 0.25 0.10 89 1016.3
20180922211004 60 289 9.0 14.0 0.00 0.25 0.10 89 1016.3
20180922210504 60 297 9.0 14.0 0.00 0.25 0.10 89 1016.2
20180922210004 60 300 11.0 16.0 0.00 0.25 0.10 89 1016.2
20180922205504 60 291 10.0 16.0 0.00 0.25 0.10 89 1016.1
20180922205005 60 302 10.0 14.0 0.00 0.25 0.10 90 1016.1
20180922204504 59 309 10.0 17.0 0.00 0.25 0.10 90 1016.1
20180922204004 59 312 16.0 20.0 0.00 0.25 0.10 89 1016.1
20180922203504 59 316 16.0 23.0 0.00 0.25 0.10 90 1016.0
20180922203005 59 305 17.0 24.0 0.00 0.25 0.10 90 1016.0
20180922202504 59 300 16.0 21.0 0.00 0.25 0.10 91 1016.0
20180922202005 60 295 14.0 24.0 0.00 0.25 0.10 91 1015.9
20180922201504 60 287 14.0 21.0 0.00 0.25 0.10 90 1015.9
20180922201004 60 282 12.0 22.0 0.00 0.25 0.10 90 1015.8
20180922200504 60 292 15.0 21.0 0.00 0.25 0.10 88 1015.7
20180922200004 61 296 12.0 16.0 0.00 0.25 0.10 88 1015.8
20180922195504 61 280 8.0 15.0 0.00 0.25 0.10 89 1015.7
20180922195005 61 293 7.0 14.0 0.00 0.25 0.10 89 1015.6
20180922194504 60 292 10.0 15.0 0.00 0.25 0.10 89 1015.5
20180922194004 60 284 10.0 14.0 0.00 0.25 0.10 89 1015.6
20180922193504 60 280 10.0 13.0 0.00 0.25 0.10 90 1015.5
20180922193005 61 287 7.0 15.0 0.00 0.25 0.10 91 1015.4
20180922192504 60 291 7.0 14.0 0.00 0.25 0.10 91 1015.4
20180922192004 60 275 8.0 15.0 0.00 0.25 0.10 91 1015.4
20180922191504 60 278 10.0 16.0 0.00 0.25 0.10 91 1015.4
20180922191005 60 283 12.0 17.0 0.00 0.25 0.10 91 1015.3
20180922190504 60 272 11.0 20.0 0.00 0.25 0.10 91 1015.3
20180922190004 60 282 10.0 16.0 0.00 0.25 0.10 91 1015.3
20180922185505 60 270 9.0 14.0 0.00 0.25 0.10 92 1015.2
20180922185005 60 275 7.0 14.0 0.00 0.25 0.10 92 1015.1
20180922184504 60 285 9.0 13.0 0.00 0.25 0.10 92 1015.0
20180922184005 60 280 12.0 16.0 0.00 0.25 0.10 92 1014.9
20180922183503 60 273 12.0 17.0 0.00 0.25 0.10 93 1014.8
20180922183005 60 276 9.0 16.0 0.00 0.25 0.10 93 1014.8
20180922182504 60 284 8.0 15.0 0.00 0.25 0.10 94 1014.7
20180922182006 60 283 9.0 16.0 0.00 0.25 0.10 95 1014.7
20180922181505 60 286 12.0 17.0 0.00 0.25 0.10 96 1014.6
20180922181005 59 276 10.0 16.0 0.00 0.25 0.10 96 1014.5
20180922180504 59 274 11.0 16.0 0.00 0.25 0.10 96 1014.4
20180922180005 58 295 12.0 20.0 0.00 0.25 0.10 96 1014.4
20180922175504 58 285 13.0 21.0 0.00 0.25 0.10 96 1014.2
20180922175005 58 273 12.0 17.0 0.00 0.25 0.10 96 1014.2
20180922174504 58 285 13.0 20.0 0.00 0.25 0.10 97 1014.1
20180922174005 58 292 17.0 23.0 0.00 0.25 0.10 97 1014.1
20180922173504 59 288 13.0 20.0 0.00 0.25 0.10 97 1014.0
20180922173005 59 283 11.0 20.0 0.00 0.25 0.10 97 1013.9
20180922172504 59 280 9.0 16.0 0.00 0.25 0.10 97 1013.8
20180922172005 59 264 10.0 14.0 0.00 0.25 0.10 97 1013.7
20180922171504 59 270 9.0 15.0 0.00 0.25 0.10 97 1013.6
20180922171004 58 268 9.0 13.0 0.00 0.25 0.10 97 1013.6
20180922170503 58 272 8.0 14.0 0.00 0.25 0.10 97 1013.5
20180922170004 58 286 9.0 15.0 0.00 0.25 0.10 97 1013.4
20180922165504 58 281 12.0 16.0 0.00 0.25 0.10 97 1013.4
20180922165015 58 289 10.0 15.0 0.00 0.25 0.10 97 1013.3
20180922164504 58 288 13.0 20.0 0.00 0.25 0.10 97 1013.2
20180922164005 58 287 14.0 20.0 0.00 0.25 0.10 97 1013.1
20180922163504 58 283 16.0 23.0 0.00 0.25 0.10 97 1013.0
20180922163004 59 276 14.0 21.0 0.00 0.25 0.10 97 1012.9
20180922162504 59 279 15.0 21.0 0.00 0.25 0.10 97 1012.8
20180922162005 59 281 12.0 20.0 0.00 0.25 0.10 97 1012.7
20180922161504 59 281 12.0 17.0 0.03 0.25 0.10 97 1012.7
20180922161004 59 274 10.0 17.0 0.04 0.25 0.10 97 1012.6
20180922160503 59 278 13.0 18.0 0.04 0.25 0.10 97 1012.5
20180922160004 59 261 12.0 16.0 0.04 0.25 0.10 97 1012.4
20180922155504 59 255 13.0 18.0 0.04 0.25 0.10 97 1012.3
20180922155004 59 261 9.0 17.0 0.04 0.25 0.10 97 1012.3
20180922154504 59 256 10.0 15.0 0.04 0.25 0.10 97 1012.2
20180922154005 59 247 9.0 14.0 0.04 0.25 0.10 97 1012.2
20180922153504 59 243 7.0 12.0 0.04 0.25 0.10 97 1012.2
20180922153005 59 220 7.0 14.0 0.04 0.25 0.10 97 1012.2
20180922152504 59 246 8.0 14.0 0.04 0.25 0.10 97 1012.1
20180922152004 58 241 10.0 18.0 0.04 0.25 0.10 97 1012.1
20180922151505 59 235 9.0 16.0 0.03 0.22 0.07 97 1012.0
20180922151005 59 242 7.0 16.0 0.02 0.21 0.06 97 1012.0
20180922150504 58 240 7.0 15.0 0.03 0.21 0.06 97 1012.0
20180922150004 59 232 8.0 14.0 0.03 0.21 0.06 97 1011.8
20180922145505 59 238 7.0 17.0 0.03 0.21 0.06 97 1011.8
20180922145005 58 234 9.0 15.0 0.03 0.21 0.06 97 1011.8
20180922144504 58 225 7.0 16.0 0.03 0.21 0.06 97 1011.8
20180922144004 58 230 7.0 15.0 0.03 0.21 0.06 97 1011.8
20180922143503 58 223 7.0 13.0 0.03 0.21 0.06 97 1011.8
20180922143005 58 212 9.0 16.0 0.03 0.21 0.06 97 1011.7
20180922142504 58 213 8.0 15.0 0.03 0.21 0.06 97 1011.7
20180922142005 58 193 9.0 16.0 0.03 0.21 0.06 97 1011.7
20180922141504 58 205 7.0 15.0 0.01 0.19 0.04 96 1011.7
20180922141005 58 203 9.0 16.0 0.01 0.19 0.04 96 1011.6
20180922140504 58 205 8.0 14.0 0.00 0.18 0.03 96 1011.7
20180922140004 58 195 9.0 15.0 0.00 0.18 0.03 96 1011.6
20180922135504 58 192 7.0 16.0 0.00 0.18 0.03 96 1011.7
20180922135005 58 206 7.0 13.0 0.00 0.18 0.03 96 1011.6
20180922134504 58 205 6.0 14.0 0.00 0.18 0.03 96 1011.6
20180922134004 58 217 7.0 13.0 0.02 0.18 0.03 96 1011.6
20180922133504 58 189 7.0 16.0 0.02 0.18 0.03 96 1011.7
20180922133004 58 197 7.0 16.0 0.02 0.18 0.03 96 1011.6
20180922132504 58 222 7.0 14.0 0.02 0.18 0.03 96 1011.6
20180922132005 58 212 5.0 16.0 0.02 0.18 0.03 96 1011.6
20180922131504 58 211 6.0 15.0 0.02 0.18 0.03 96 1011.5
20180922131005 58 229 8.0 15.0 0.02 0.18 0.03 96 1011.6
20180922130503 58 220 8.0 18.0 0.02 0.18 0.03 96 1011.5
20180922130004 58 240 9.0 16.0 0.02 0.18 0.03 96 1011.4
20180922125504 58 227 7.0 13.0 0.02 0.18 0.03 96 1011.5
20180922125004 58 221 7.0 15.0 0.02 0.18 0.03 96 1011.4
20180922124504 58 234 9.0 17.0 0.02 0.18 0.03 96 1011.4
20180922124005 59 210 6.0 17.0 0.00 0.16 0.01 96 1011.4
20180922123504 59 188 7.0 14.0 0.00 0.16 0.01 96 1011.3
20180922123004 59 194 5.0 12.0 0.00 0.16 0.01 96 1011.3
20180922122504 59 214 8.0 15.0 0.00 0.16 0.01 96 1011.3
20180922122005 59 199 8.0 15.0 0.00 0.16 0.01 96 1011.2
20180922121504 59 218 7.0 14.0 0.00 0.16 0.01 96 1011.2
20180922121005 58 206 8.0 15.0 0.00 0.16 0.01 96 1011.3
20180922120504 59 218 8.0 14.0 0.00 0.16 0.01 96 1011.3
20180922120004 58 226 7.0 14.0 0.00 0.16 0.01 96 1011.4
20180922115504 58 213 9.0 16.0 0.00 0.16 0.01 96 1011.4
20180922115004 58 202 7.0 14.0 0.00 0.16 0.01 96 1011.3
20180922114504 59 221 6.0 15.0 0.00 0.16 0.01 96 1011.3
20180922114010 59 207 5.0 13.0 0.00 0.16 0.01 96 1011.2
20180922113504 59 198 6.0 15.0 0.00 0.16 0.01 96 1011.3
20180922113005 59 202 6.0 15.0 0.00 0.16 0.01 96 1011.2
20180922112504 59 195 7.0 14.0 0.00 0.16 0.01 96 1011.2
20180922112005 59 196 6.0 14.0 0.00 0.16 0.01 96 1011.2
20180922111504 59 209 6.0 14.0 0.00 0.16 0.01 96 1011.2
20180922111004 59 212 7.0 17.0 0.01 0.16 0.01 96 1011.2
20180922110505 59 204 6.0 15.0 0.01 0.16 0.01 96 1011.2
20180922110004 59 224 8.0 18.0 0.01 0.16 0.01 96 1011.2
20180922105504 59 216 8.0 15.0 0.01 0.16 0.01 96 1011.1
20180922105005 59 214 6.0 16.0 0.01 0.16 0.01 96 1011.1
20180922104504 59 225 8.0 15.0 0.01 0.16 0.01 96 1011.1
20180922104005 59 209 7.0 14.0 0.01 0.16 0.01 96 1011.1
20180922103504 59 236 10.0 16.0 0.01 0.16 0.01 96 1011.1
20180922103004 59 246 9.0 16.0 0.01 0.16 0.01 96 1011.1
20180922102504 59 244 7.0 17.0 0.01 0.16 0.01 96 1011.1
20180922102004 59 212 11.0 20.0 0.01 0.16 0.01 96 1011.0
20180922101504 59 207 9.0 18.0 0.01 0.16 0.01 96 1011.1
20180922101005 59 233 9.0 20.0 0.00 0.15 0.00 96 1011.1
20180922100503 60 223 7.0 15.0 0.00 0.15 0.00 96 1011.1
20180922100004 60 218 10.0 20.0 0.00 0.15 0.00 96 1011.1
20180922095504 60 207 8.0 20.0 0.00 0.15 0.00 96 1011.1
20180922095005 59 204 8.0 17.0 0.00 0.15 0.00 95 1011.1
20180922094504 59 204 10.0 18.0 0.00 0.15 0.00 95 1011.0
20180922094004 59 202 9.0 17.0 0.00 0.15 0.00 95 1011.0
20180922093504 59 200 9.0 18.0 0.00 0.15 0.00 95 1011.0
20180922093004 59 206 9.0 18.0 0.00 0.15 0.00 95 1011.0
20180922092504 59 201 10.0 20.0 0.00 0.15 0.00 96 1011.0
20180922092004 59 213 10.0 20.0 0.00 0.15 0.00 95 1011.0
20180922091505 59 190 10.0 20.0 0.00 0.15 0.00 96 1010.8
20180922091004 59 228 12.0 22.0 0.00 0.15 0.00 96 1010.9
20180922090504 59 213 10.0 25.0 0.00 0.15 0.00 96 1010.8
20180922090005 59 212 11.0 20.0 0.00 0.15 0.00 96 1010.8
20180922085504 60 195 9.0 20.0 0.00 0.15 0.00 96 1010.8
20180922085005 60 211 10.0 20.0 0.00 0.15 0.00 96 1010.8
20180922084504 60 214 9.0 21.0 0.00 0.15 0.00 96 1011.0
20180922084005 60 208 12.0 23.0 0.00 0.15 0.00 96 1010.9
20180922083504 60 193 9.0 20.0 0.00 0.15 0.00 96 1010.8
20180922083005 60 184 6.0 14.0 0.00 0.15 0.00 96 1010.7
20180922082504 60 145 6.0 12.0 0.00 0.15 0.00 96 1010.8
20180922082005 60 176 9.0 17.0 0.00 0.15 0.00 96 1010.8
20180922081504 60 176 7.0 20.0 0.00 0.15 0.00 96 1010.9
20180922081004 60 161 9.0 17.0 0.00 0.15 0.00 96 1010.8
20180922080503 60 169 9.0 20.0 0.00 0.15 0.00 96 1010.8
20180922080004 60 180 9.0 18.0 0.00 0.15 0.00 96 1010.8
20180922075504 60 147 8.0 16.0 0.00 0.15 0.00 96 1010.8
20180922075005 60 163 7.0 20.0 0.00 0.15 0.00 96 1010.9
20180922074504 60 164 8.0 18.0 0.00 0.15 0.00 96 1010.8
20180922074004 60 173 7.0 15.0 0.00 0.15 0.00 96 1010.8
20180922073505 60 164 7.0 16.0 0.00 0.15 0.00 96 1010.8
20180922073004 60 186 7.0 17.0 0.00 0.15 0.00 96 1011.0
20180922072503 60 189 9.0 14.0 0.00 0.15 0.00 96 1011.1
20180922072004 60 208 7.0 15.0 0.00 0.15 0.00 96 1011.0
20180922071505 60 203 10.0 17.0 0.00 0.15 0.00 96 1011.0
20180922071005 60 177 8.0 17.0 0.00 0.15 0.00 96 1010.9
20180922070504 60 184 7.0 15.0 0.00 0.15 0.00 96 1010.9
20180922070004 60 181 5.0 13.0 0.00 0.15 0.00 96 1011.0
20180922065503 60 193 7.0 14.0 0.00 0.15 0.15 96 1011.0
20180922065005 60 189 8.0 16.0 0.00 0.15 0.15 96 1010.9
20180922064504 60 187 9.0 18.0 0.00 0.15 0.15 96 1011.0
20180922064005 60 185 8.0 14.0 0.00 0.15 0.15 96 1011.0
20180922063504 60 205 7.0 12.0 0.00 0.15 0.15 96 1011.0
20180922063005 60 165 6.0 15.0 0.00 0.15 0.15 96 1011.1
20180922062504 60 166 8.0 15.0 0.00 0.15 0.15 96 1011.0
20180922062005 60 191 7.0 15.0 0.00 0.15 0.15 96 1011.1
20180922061503 60 167 6.0 13.0 0.00 0.15 0.15 96 1011.2
20180922061004 59 188 6.0 16.0 0.00 0.15 0.15 96 1011.1
20180922060504 59 177 7.0 15.0 0.00 0.15 0.15 96 1011.2
20180922060003 59 167 8.0 16.0 0.00 0.15 0.15 96 1011.1
20180922055504 59 179 6.0 15.0 0.00 0.15 0.15 96 1011.1
20180922055004 59 188 6.0 12.0 0.00 0.15 0.15 96 1011.2
20180922054504 59 176 6.0 12.0 0.00 0.15 0.15 96 1011.1
20180922054005 59 223 6.0 12.0 0.00 0.15 0.15 96 1011.2
20180922053504 59 200 6.0 12.0 0.00 0.15 0.15 96 1011.2
20180922053004 59 171 6.0 15.0 0.00 0.15 0.15 96 1011.2
20180922052504 59 172 6.0 20.0 0.00 0.15 0.15 96 1011.2
20180922052004 59 159 6.0 15.0 0.00 0.15 0.15 96 1011.3
20180922051504 59 193 6.0 17.0 0.00 0.15 0.15 96 1011.3
20180922051004 59 161 6.0 12.0 0.00 0.15 0.15 96 1011.2
20180922050504 59 172 6.0 12.0 0.00 0.15 0.15 96 1011.3
20180922050004 59 164 5.0 12.0 0.00 0.15 0.15 96 1011.3
20180922045504 59 142 7.0 14.0 0.01 0.15 0.15 96 1011.3
20180922045005 59 178 6.0 13.0 0.01 0.15 0.15 96 1011.3
20180922044504 59 159 7.0 14.0 0.01 0.15 0.15 96 1011.3
20180922044004 59 164 5.0 13.0 0.01 0.15 0.15 96 1011.4
20180922043504 59 152 6.0 20.0 0.01 0.15 0.15 96 1011.4
20180922043004 59 175 6.0 16.0 0.01 0.15 0.15 96 1011.4
20180922042504 59 157 6.0 16.0 0.01 0.15 0.15 96 1011.4
20180922042005 59 183 6.0 17.0 0.02 0.15 0.15 96 1011.3